Regional Weather Roundup
Issued by NWS

Home | Current Version | Previous Version | Text Only | Print | Product List | Glossary On
Versions: 1 2 3 4 5 6 7 8 9 10 11 12 13 14 15 16 17 18 19 20 21 22 23 24 25 26 27 28 29 30 31 32 33 34 35 36 37 38 39 40 41 42 43 44 45 46 47 48 49 50
000
ASUS44 KOUN 231410
RWROK

WEATHER ROUNDUP FOR OKLAHOMA
NATIONAL WEATHER SERVICE NORMAN OK
900 AM CDT THU OCT 23 2014

NOTE: "FAIR" INDICATES FEW OR NO CLOUDS BELOW 12,000 FEET WITH NO
      SIGNIFICANT WEATHER AND/OR OBSTRUCTIONS TO VISIBILITY.

OKZ001>007-009>012-014-015-017-231500-
NORTHWEST OKLAHOMA AND THE PANHANDLE

CITY           SKY/WX    TMP DP  RH WIND       PRES   REMARKS
GAGE           CLOUDY    58  58 100 MISG      30.10R FOG
ENID/WOODRING  PTSUNNY   63  61  94 S6        30.10R
$$

OKZ016-021>023-033>039-044-045-231500-
SOUTHWEST OKLAHOMA

CITY           SKY/WX    TMP DP  RH WIND       PRES   REMARKS
LAWTON/REGL    MOSUNNY   63  57  81 S7        30.13R
LAWTON/FT SILL SUNNY     62  58  86 S8        30.12R
FREDERICK      MOSUNNY   63  60  90 SE6       30.09R FOG
CLINTON        LGT RAIN  59  57  93 S8        30.13R VSB 1/4
HOBART         SUNNY     60  60 100 S9        30.12R FOG
ALTUS AFB      FOG       59  59 100 E2        30.12R VSB 1/2
$$

OKZ018>020-024>031-231500-
CENTRAL OKLAHOMA

CITY           SKY/WX    TMP DP  RH WIND       PRES   REMARKS
OKLAHOMA CITY  CLOUDY    61  56  83 S9        30.13R
OKC/WILEY POST CLOUDY    62  56  80 S12       30.12R
OKC/TINKER AFB PTSUNNY   60  55  85 S13       30.13R
STILLWATER     PTSUNNY   61  56  83 S8        30.11S
GUTHRIE        CLOUDY    61  57  87 S8        30.12R
$$

OKZ008-013-054>072-231500-
NORTHEAST OKLAHOMA

CITY           SKY/WX    TMP DP  RH WIND       PRES   REMARKS
TULSA          LGT RAIN  60  58  92 SE6       30.15R FOG
TULSA/JONES    LGT RAIN  61  57  87 S7        30.16R
PONCA CITY     CLOUDY    62  58  86 S8        30.11R
BARTLESVILLE   CLOUDY    59  58  96 S6        30.16R
MUSKOGEE       CLOUDY    57  51  80 S5        30.19R
$$

OKZ032-040>043-046>053-073>077-231500-
SOUTH CENTRAL/SOUTHEAST OKLAHOMA

CITY           SKY/WX    TMP DP  RH WIND       PRES   REMARKS
ARDMORE/DWNTWN CLOUDY    59  55  88 CALM      30.15R
MCALESTER      CLOUDY    60  51  72 VRB6      30.17R
$$




USA.gov is the U.S. government's official web portal to all federal, state and local government web resources and services.